This demonstration page uses our WeatherBlox Daily Observations layout. Learn more.

Left ArrowRight Arrow

Hourly Observations for February 1, 2016

Temp ( °F °C ) Dew Point ( °F °C ) Humidity (%) Winds ( mph kmh ) Pressure ( in mb ) Visibility ( mi km ) Precip ( " mm )
12:58 am 00:58 Clear 29 -1.4 28 -2.3 94 94 NW 8 13 29.99 1016 10 16 0.00 0.00
1:58 am 01:58 Mostly Clear 31 -0.8 29 -1.6 94 94 W 3 6 29.98 1015 10 16 0.00 0.00
2:58 am 02:58 Clear 29 -1.5 27 -2.6 92 92 W 1 2 29.99 1016 10 16 0.00 0.00
3:58 am 03:58 Clear 28 -2 28 -2.2 99 99 S 2 4 29.98 1015 10 16 0.00 0.00
4:58 am 04:58 Clear 26 -3.3 26 -3.6 98 98 SSW 1 2 30.00 1016 10 16 0.00 0.00
5:58 am 05:58 Clear 24 -4.6 23 -4.9 98 98 W 2 4 30.01 1016 10 16 0.00 0.00
6:58 am 06:58 Clear 23 -4.8 23 -5.2 97 97 W 2 4 30.04 1017 10 16 0.00 0.00
7:58 am 07:58 Sunny 24 -4.2 24 -4.4 99 99 Calm 30.04 1017 10 16 0.00 0.00
8:58 am 08:58 Sunny 28 -2.5 27 -2.9 97 97 WNW 3 6 30.06 1018 10 16 0.00 0.00
9:58 am 09:58 Cloudy 32 0 29 -1.8 88 88 NE 2 4 30.08 1019 10 16 0.00 0.00
10:58 am 10:58 Cloudy 35 1.6 32 -0.2 88 88 Calm 30.07 1018 10 16 0.00 0.00
11:58 am 11:58 Sunny 40 4.5 29 -1.8 64 64 NNE 5 7 30.06 1018 10 16 0.00 0.00
12:58 pm 12:58 Partly Cloudy 43 5.9 31 -0.6 63 63 Calm 30.03 1017 10 16 0.00 0.00
1:58 pm 13:58 Cloudy 42 5.7 31 -0.4 65 65 Calm 30.01 1016 10 16 0.00 0.00
2:58 pm 14:58 Cloudy 42 5.8 32 -0.1 66 66 NE 7 11 30.00 1016 10 16 0.00 0.00
3:58 pm 15:58 Mostly Cloudy 40 4.4 32 0.2 74 74 NNE 7 11 29.99 1016 10 16 0.00 0.00
4:58 pm 16:58 Cloudy 38 3.5 32 0.1 79 79 NNE 9 15 29.98 1015 10 16 0.00 0.00
5:58 pm 17:58 Clear 38 3.4 30 -1.2 72 72 WNW 6 9 29.88 1012 10 16 0.00 0.00
6:58 pm 18:58 Mostly Cloudy 38 3.2 33 0.4 82 82 NE 10 17 29.98 1015 10 16 0.00 0.00
7:58 pm 19:58 Cloudy 37 2.7 33 0.4 85 85 NE 12 19 29.96 1015 10 16 0.00 0.00
8:58 pm 20:58 Cloudy 37 2.5 33 0.4 86 86 NE 10 17 29.97 1015 10 16 0.00 0.00
9:58 pm 21:58 Cloudy 37 2.5 33 0.5 87 87 ENE 10 17 29.99 1016 10 16 0.00 0.00
10:10 pm 22:10 Cloudy with Light Rain 37 3 32 0 81 81 NE 10 17 29.97 1015 10 16 0.00 0.00
10:45 pm 22:45 Cloudy 36 2 34 1 93 93 NNE 13 20 29.94 1014 10 16 0.00 0.00
10:58 pm 22:58 Cloudy 36 2.3 34 1.1 92 92 NE 10 17 29.97 1015 10 16 0.00 0.03
11:06 pm 23:06 Cloudy with Drizzle 36 2 34 1 93 93 NE 12 19 29.97 1015 10 16 0.00 0.00
11:58 pm 23:58 Mostly Cloudy with Light Rain 37 2.6 33 0.8 88 88 NE 15 24 29.92 1013 10 16 0.01 0.25

Powered by AerisWeather